[[[{"header":{"parameterUnit":"kt","parameterCategory":2,"dx":1,"dy":1,"la1":30.253999710083008,"la2":30.299108505249023,"lo1":-89.0895004272461,"lo2":-89.04439544677734,"nx":28,"ny":28,"refTime":"2022-09-26T21:00:00:Z","depth":0,"parameterNumber":1,"parameterNumberName":"U-component_of_WINDS"},"data":[0.6558,0.6637,0.6684,0.6796,0.6858,0.6944,0.699,0.7055,0.7119,0.7229,0.7301,0.7359,0.7444,0.7543,0.7626,0.765,0.7682,0.7675,0.7705,0.7692,0.7694,0.7695,0.7679,0.7681,0.7681,0.7712,0.7712,0.7712,0.6543,0.6604,0.6677,0.678,0.6844,0.6879,0.6965,0.7016,0.7093,0.7173,0.7247,0.7348,0.7436,0.7526,0.7619,0.766,0.7683,0.7682,0.768,0.7693,0.7681,0.7663,0.7661,0.7661,0.7661,0.7661,0.7661,0.7661,0.6528,0.6574,0.6663,0.6744,0.6809,0.6878,0.6931,0.7,0.7074,0.7175,0.7219,0.7308,0.74,0.7537,0.7596,0.7668,0.7679,0.7694,0.7698,0.77,0.7696,0.7644,0.7687,0.7687,0.7687,0.7687,0.7687,0,0.6533,0.6569,0.6642,0.673,0.6792,0.6865,0.6941,0.6975,0.7072,0.7129,0.7217,0.7276,0.7394,0.7484,0.7583,0.7643,0.7688,0.7699,0.7709,0.7689,0.7657,0.7675,0.7652,0.7698,0.7698,0.7698,0.7698,0.7698,0.6521,0.6569,0.6687,0.6732,0.6785,0.6858,0.6912,0.6993,0.7047,0.7154,0.7192,0.7282,0.7359,0.7495,0.7579,0.7669,0.7692,0.7703,0.7706,0.7683,0.7693,0.7689,0.7695,0.7702,0.7701,0.7701,0.7701,0,0.6511,0.6589,0.6678,0.6791,0.6821,0.6868,0.6966,0.7016,0.7079,0.7157,0.7181,0.728,0.7367,0.745,0.7567,0.7608,0.7689,0.7709,0.7657,0.7666,0.7685,0.7682,0.7733,0.7744,0.7742,0.7742,0.7742,0,0.6532,0.6592,0.6705,0.6753,0.6823,0.6904,0.6971,0.7032,0.7112,0.7175,0.7238,0.7296,0.7394,0.7464,0.7525,0.7606,0.7629,0.7665,0.7681,0.766,0.7655,0.7691,0.7691,0.7714,0.7714,0.7713,0.7713,0,0.6508,0.6639,0.6717,0.676,0.6888,0.6923,0.6979,0.7069,0.7121,0.7203,0.7239,0.7329,0.7379,0.7449,0.7526,0.7524,0.7627,0.7642,0.7665,0.7663,0.7684,0.7682,0.7705,0.7713,0.7713,0.7712,0.7712,0,0.6538,0.6616,0.6718,0.6826,0.6857,0.691,0.7003,0.7067,0.7158,0.7199,0.7265,0.7318,0.7395,0.7403,0.7512,0.7488,0.7534,0.7576,0.7579,0.7592,0.7598,0.7601,0.7614,0.7619,0.7603,0.7602,0.7601,0,0.6488,0.6612,0.6681,0.6777,0.6846,0.6912,0.6972,0.7051,0.711,0.7179,0.7247,0.7325,0.7349,0.7385,0.7428,0.7501,0.7533,0.75,0.7601,0.7604,0.7574,0.7587,0.7568,0.7601,0.759,0.7592,0.7592,0,0.646,0.6613,0.6625,0.6678,0.6793,0.6851,0.692,0.7015,0.7056,0.7138,0.7199,0.7312,0.7335,0.7394,0.7448,0.7488,0.7514,0.7508,0.7511,0.7506,0.7592,0.7574,0.7579,0.7541,0.7543,0.7544,0.7584,0,0.6487,0.656,0.6596,0.6709,0.6767,0.6832,0.6918,0.6968,0.7013,0.7074,0.7166,0.7254,0.7353,0.7382,0.7427,0.7492,0.7494,0.7518,0.7532,0.754,0.7555,0.7562,0.7502,0.7503,0.7504,0.7504,0,0,0.6421,0.6526,0.6601,0.667,0.6723,0.6792,0.6853,0.6914,0.7036,0.7072,0.708,0.7252,0.7324,0.7427,0.7436,0.7476,0.7496,0.7491,0.7536,0.7539,0.7542,0.7557,0.7562,0.7506,0.7506,0.7506,0.7507,0,0.6449,0.6516,0.6575,0.6641,0.674,0.6803,0.6817,0.6929,0.6971,0.7061,0.7119,0.7185,0.732,0.7389,0.7441,0.748,0.7521,0.7504,0.7494,0.754,0.7542,0.7544,0.7559,0.7563,0.7509,0.7508,0.7508,0,0.6436,0.6517,0.6555,0.6679,0.6745,0.6815,0.685,0.6923,0.6976,0.705,0.7139,0.72,0.73,0.7385,0.7427,0.7436,0.7538,0.7522,0.7519,0.7526,0.7575,0.7578,0.7579,0.7553,0.7553,0.7552,0,0,0.6449,0.6516,0.663,0.6691,0.6729,0.6823,0.6869,0.6918,0.7004,0.7038,0.7118,0.7201,0.7282,0.7332,0.7412,0.7494,0.7522,0.7523,0.7521,0.7519,0.7525,0.7573,0.7576,0.7552,0.7552,0.7552,0,0,0.6456,0.6589,0.6618,0.67,0.6778,0.6896,0.6931,0.697,0.705,0.7053,0.7142,0.7168,0.725,0.7309,0.7287,0.7419,0.7432,0.7439,0.7378,0.7377,0.7375,0.7359,0.7338,0,0,0,0,0,0.6529,0.6572,0.6597,0.6623,0.6782,0.6881,0.6902,0.6975,0.6982,0.7008,0.7081,0.7122,0.7315,0.7298,0.7325,0.7349,0.7541,0.7543,0.7545,0.7486,0.7483,0.7481,0,0,0,0,0,0,0.654,0.6572,0.6596,0.6713,0.675,0.688,0.6908,0.6929,0.6981,0.6987,0.7106,0.7126,0.7191,0.729,0.7313,0.7334,0.733,0.7542,0.7543,0.7545,0.7485,0.7483,0.7481,0,0,0,0,0,0.6549,0.6575,0.6809,0.6714,0.6745,0.6852,0.6907,0.6925,0.6967,0.708,0.71,0.7017,0.719,0.7214,0.7304,0.7321,0.7315,0.7323,0.7543,0.7544,0.7545,0.7484,0,0,0,0,0,0,0.6556,0.6593,0.6818,0.683,0.6702,0.6847,0.6872,0.6921,0.7058,0.7078,0.6994,0.6998,0.7189,0.7209,0.7227,0.7313,0.7303,0.7311,0.7316,0.7544,0.7545,0.7546,0,0,0,0,0,0,0.658,0.6603,0.6824,0.6806,0.6817,0.6841,0.6863,0.6951,0.7058,0.6965,0.6972,0.6994,0.7163,0.7205,0.7219,0.7353,0.7293,0.7301,0.7307,0.731,0.7544,0.7545,0,0,0,0,0,0,0.6591,0.6611,0.6803,0.6811,0.6821,0.6967,0.692,0.7079,0.7039,0.6958,0.7038,0.7038,0.7158,0.7174,0.7214,0.734,0.7349,0.7294,0.7299,0.7303,0.7305,0,0,0,0,0,0,0,0.66,0.6447,0.6743,0.6816,0.6825,0.6945,0.6949,0.6952,0.7039,0.7039,0.7038,0.7038,0.7248,0.7256,0.7265,0.733,0,0,0.7293,0.7297,0,0,0,0,0,0,0,0,0.644,0.6445,0.6744,0.6746,0.6749,0.6946,0.6948,0.6951,0.7039,0.7039,0.7038,0.7038,0.725,0.7257,0.7264,0,0,0,0,0,0,0,0,0,0,0,0,0,0,0,0.6744,0.6746,0,0.6946,0.6948,0.6951,0.7039,0.7039,0.7038,0.7038,0.7252,0.7258,0.7264,0,0,0,0,0,0,0,0,0,0,0,0,0,0,0,0,0,0,0,0,0,0,0,0,0,0,0,0,0,0,0,0,0,0,0,0,0,0,0,0,0,0,0,0,0,0,0,0,0,0,0,0,0,0,0,0,0,0,0,0,0,0,0,0,0,0,0,0,0]}],[{"header":{"parameterUnit":"kt","parameterCategory":2,"dx":1,"dy":1,"la1":30.253999710083008,"la2":30.299108505249023,"lo1":-89.0895004272461,"lo2":-89.04439544677734,"nx":28,"ny":28,"refTime":"2022-09-26T21:00:00:Z","depth":0,"parameterNumber":2,"parameterNumberName":"V-component_of_WINDS"},"data":[1.844,1.8732,1.8744,1.9082,1.915,1.9382,1.9469,1.9582,1.9676,1.9954,2.0116,2.016,2.0259,2.0455,2.063,2.0646,2.0717,2.0808,2.081,2.0391,2.0333,2.0279,2.0208,2.0825,2.0826,2.1239,2.1243,2.1246,1.8119,1.8189,1.8374,1.8561,1.8717,1.8635,1.8777,1.8913,1.9124,1.9244,1.9406,1.9653,1.985,1.9921,2.0112,2.0247,2.0219,2.0297,2.0285,2.0301,1.9854,1.9779,2.0316,2.0316,2.0315,2.0315,2.0315,2.0315,1.7537,1.7714,1.7834,1.8034,1.8133,1.8258,1.8428,1.8477,1.8658,1.8862,1.8844,1.9084,1.9207,1.9447,1.9532,1.9718,1.9634,1.9724,1.9746,1.9767,1.9786,1.9174,1.9753,1.9751,1.975,1.9749,1.9747,0,1.7114,1.7112,1.7292,1.7475,1.7622,1.7767,1.7901,1.8007,1.8011,1.8162,1.838,1.8508,1.8762,1.8968,1.9153,1.9224,1.9154,1.9152,1.9213,1.9221,1.9201,1.9208,1.8473,1.9135,1.913,1.9126,1.9123,1.9121,1.6522,1.673,1.6865,1.6989,1.7066,1.727,1.7392,1.7381,1.7512,1.7677,1.7834,1.8042,1.8208,1.8558,1.8616,1.8807,1.8774,1.9024,1.8803,1.88,1.8771,1.8756,1.8774,1.9066,1.9073,1.9079,1.9083,0,1.6187,1.6209,1.6536,1.665,1.6685,1.6903,1.7001,1.7179,1.7209,1.7458,1.7515,1.7564,1.7781,1.7799,1.8053,1.8055,1.8408,1.8375,1.8361,1.8354,1.8575,1.8551,1.9302,1.9396,1.8762,1.8769,1.8774,0,1.5688,1.5964,1.5979,1.6169,1.6472,1.6453,1.6754,1.681,1.6918,1.7114,1.704,1.7225,1.7221,1.7409,1.7414,1.7707,1.7757,1.7774,1.7772,1.7779,1.7776,1.7847,1.7814,1.7766,1.7762,1.7759,1.7756,0,1.5156,1.5492,1.5799,1.5879,1.6031,1.6176,1.6247,1.6369,1.6492,1.6655,1.6733,1.6927,1.7031,1.718,1.7184,1.7033,1.7546,1.7338,1.7563,1.7563,1.7674,1.7666,1.8328,1.7751,1.775,1.7749,1.7747,0,1.4757,1.4922,1.5368,1.549,1.5579,1.5784,1.5969,1.615,1.6285,1.6301,1.643,1.6382,1.6646,1.6436,1.6796,1.6596,1.6703,1.6746,1.6762,1.6784,1.6548,1.6913,1.7545,1.7609,1.6805,1.6797,1.679,0,1.4137,1.4595,1.4582,1.5008,1.5221,1.5119,1.5347,1.547,1.551,1.5696,1.5741,1.5956,1.5806,1.5875,1.6051,1.6106,1.6367,1.6073,1.6337,1.6346,1.6296,1.688,1.6967,1.7405,1.6691,1.6701,1.6709,0,1.366,1.3846,1.3923,1.4011,1.4173,1.4355,1.4618,1.4826,1.4949,1.5101,1.5318,1.5626,1.5521,1.564,1.5624,1.5807,1.619,1.5672,1.5675,1.5759,1.6645,1.6724,1.6798,1.6138,1.615,1.616,1.6629,0,1.3039,1.3274,1.3486,1.3691,1.3834,1.4105,1.4125,1.4272,1.4239,1.4276,1.4601,1.4714,1.4931,1.5023,1.4997,1.5411,1.5344,1.5234,1.503,1.5415,1.557,1.5634,1.4796,1.4791,1.4786,1.4782,0,0,1.2438,1.2775,1.2756,1.3012,1.313,1.3023,1.331,1.3414,1.3631,1.3714,1.3601,1.4051,1.415,1.4542,1.4664,1.4756,1.4829,1.4697,1.5233,1.5283,1.533,1.5495,1.5561,1.4773,1.4771,1.477,1.4768,0,1.2213,1.2315,1.26,1.2706,1.2863,1.2889,1.2957,1.3096,1.3133,1.3455,1.3363,1.3562,1.3928,1.404,1.4145,1.465,1.457,1.4716,1.4976,1.5183,1.524,1.529,1.5464,1.5527,1.4756,1.4757,1.4757,0,1.1743,1.1843,1.1984,1.2254,1.2357,1.2584,1.2373,1.2625,1.2791,1.2666,1.2987,1.3054,1.321,1.3583,1.3751,1.3653,1.433,1.4125,1.4157,1.4175,1.4377,1.4445,1.4506,1.3705,1.3701,1.3697,0,0,1.1546,1.1767,1.1873,1.2208,1.2279,1.2323,1.2448,1.2428,1.257,1.2627,1.2712,1.2853,1.3063,1.3203,1.3404,1.3811,1.384,1.3994,1.4044,1.4085,1.4125,1.4337,1.4405,1.3683,1.3683,1.3682,0,0,1.1453,1.1588,1.153,1.1921,1.2058,1.2186,1.239,1.2323,1.2505,1.2476,1.2459,1.2497,1.2846,1.2918,1.2723,1.3331,1.313,1.3177,1.3271,1.3334,1.3383,1.3357,1.2526,0,0,0,0,0,1.1235,1.157,1.1516,1.1585,1.193,1.2216,1.226,1.2251,1.2106,1.2266,1.2325,1.2234,1.2807,1.2634,1.2704,1.2921,1.3498,1.3531,1.3562,1.3779,1.3845,1.39,0,0,0,0,0,0,1.1262,1.1346,1.1507,1.165,1.1727,1.2203,1.1955,1.1962,1.2088,1.2065,1.2225,1.2239,1.2239,1.2598,1.2661,1.2867,1.2504,1.3511,1.3539,1.3564,1.3802,1.3855,1.3902,0,0,0,0,0,1.1283,1.1351,1.1906,1.1645,1.1712,1.1781,1.1942,1.1946,1.2044,1.2139,1.2149,1.2026,1.2245,1.2298,1.2635,1.2839,1.2461,1.2484,1.3529,1.3551,1.3571,1.3828,0,0,0,0,0,0,1.1299,1.1357,1.1919,1.1939,1.1518,1.1754,1.179,1.1933,1.2109,1.2123,1.1937,1.1917,1.2254,1.2293,1.2334,1.2829,1.2425,1.2449,1.2464,1.3546,1.3563,1.3578,0,0,0,0,0,0,1.132,1.1375,1.1929,1.1769,1.1771,1.1729,1.1762,1.205,1.2112,1.1897,1.1885,1.1926,1.2193,1.2291,1.2322,1.2773,1.2398,1.2421,1.2437,1.2447,1.356,1.3573,0,0,0,0,0,0,1.1343,1.139,1.1764,1.1766,1.1766,1.1992,1.1983,1.2338,1.1972,1.1891,1.194,1.1925,1.2195,1.2226,1.2316,1.2753,1.2768,1.2399,1.2414,1.2425,1.2433,0,0,0,0,0,0,0,1.1362,1.105,1.1799,1.1762,1.1762,1.2125,1.2131,1.2136,1.1969,1.1956,1.1943,1.1931,1.2267,1.2292,1.2318,1.2737,0,0,1.2396,1.2407,0,0,0,0,0,0,0,0,1.103,1.1045,1.18,1.1804,1.1808,1.2126,1.2131,1.2135,1.1967,1.1956,1.1946,1.1936,1.2274,1.2294,1.2315,0,0,0,0,0,0,0,0,0,0,0,0,0,0,0,1.18,1.1804,0,1.2127,1.213,1.2134,1.1965,1.1957,1.1948,1.194,1.228,1.2296,1.2313,0,0,0,0,0,0,0,0,0,0,0,0,0,0,0,0,0,0,0,0,0,0,0,0,0,0,0,0,0,0,0,0,0,0,0,0,0,0,0,0,0,0,0,0,0,0,0,0,0,0,0,0,0,0,0,0,0,0,0,0,0,0,0,0,0,0,0,0,0]}]]]